Total_Precipitation_Accumulation
0.22 0.17 0.17 0.20 0.18 0.19 0.30 0.31 0.21 0.08 0.07 0.07 0.07 0.06 0.07 0.08 0.08 0.07 0.06 0.07 0.12 0.13 0.12 0.15 0.20 0.28 0.28 0.25 0.25 0.23 0.29 0.35 0.38 0.37 0.39 0.41 0.44 0.55 0.68 0.66 0.56 0.49 0.46 0.46
0.18 0.13 0.13 0.14 0.11 0.13 0.14 0.12 0.10 0.07 0.06 0.06 0.08 0.07 0.08 0.10 0.10 0.10 0.09 0.09 0.10 0.13 0.11 0.14 0.19 0.26 0.30 0.25 0.24 0.21 0.25 0.28 0.31 0.36 0.41 0.45 0.46 0.49 0.54 0.61 0.59 0.51 0.47 0.46
0.29 0.13 0.23 0.25 0.14 0.13 0.11 0.09 0.11 0.12 0.08 0.06 0.07 0.07 0.10 0.13 0.14 0.13 0.11 0.10 0.10 0.12 0.13 0.13 0.15 0.22 0.27 0.23 0.22 0.19 0.21 0.26 0.27 0.29 0.37 0.42 0.46 0.50 0.49 0.50 0.54 0.55 0.48 0.43
0.46 0.33 0.50 0.21 0.08 0.08 0.09 0.10 0.11 0.10 0.08 0.07 0.08 0.08 0.10 0.14 0.17 0.15 0.12 0.11 0.10 0.11 0.13 0.12 0.14 0.18 0.22 0.20 0.18 0.18 0.20 0.25 0.27 0.25 0.28 0.36 0.43 0.45 0.47 0.46 0.44 0.48 0.49 0.43
0.71 0.52 0.28 0.12 0.10 0.11 0.13 0.16 0.11 0.09 0.08 0.07 0.07 0.07 0.08 0.07 0.10 0.14 0.13 0.11 0.09 0.10 0.10 0.11 0.14 0.17 0.21 0.19 0.16 0.18 0.22 0.25 0.24 0.21 0.22 0.28 0.37 0.44 0.46 0.47 0.40 0.40 0.44 0.44
0.75 0.58 0.25 0.14 0.11 0.09 0.12 0.24 0.12 0.10 0.11 0.10 0.10 0.15 0.11 0.07 0.10 0.15 0.10 0.09 0.09 0.09 0.09 0.11 0.14 0.15 0.19 0.20 0.15 0.16 0.20 0.25 0.22 0.18 0.16 0.18 0.26 0.38 0.43 0.45 0.42 0.39 0.41 0.42
0.60 0.48 0.17 0.13 0.13 0.13 0.23 0.29 0.14 0.11 0.12 0.12 0.13 0.17 0.14 0.11 0.15 0.15 0.09 0.08 0.09 0.10 0.09 0.11 0.13 0.13 0.17 0.20 0.16 0.16 0.22 0.24 0.18 0.14 0.14 0.15 0.20 0.33 0.41 0.46 0.48 0.43 0.39 0.38
0.43 0.47 0.22 0.15 0.19 0.27 0.28 0.16 0.10 0.09 0.09 0.09 0.09 0.08 0.09 0.12 0.16 0.16 0.11 0.08 0.07 0.09 0.09 0.11 0.13 0.13 0.18 0.21 0.19 0.20 0.23 0.19 0.16 0.14 0.14 0.16 0.20 0.30 0.41 0.46 0.49 0.46 0.40 0.36
0.29 0.21 0.14 0.14 0.21 0.22 0.16 0.10 0.07 0.07 0.07 0.07 0.08 0.09 0.11 0.13 0.16 0.17 0.13 0.11 0.09 0.09 0.10 0.12 0.14 0.14 0.19 0.22 0.21 0.23 0.22 0.19 0.16 0.16 0.17 0.17 0.23 0.32 0.40 0.46 0.46 0.45 0.40 0.36
0.19 0.10 0.09 0.11 0.14 0.14 0.10 0.07 0.05 0.05 0.06 0.07 0.08 0.09 0.12 0.13 0.14 0.16 0.16 0.14 0.12 0.11 0.12 0.16 0.16 0.15 0.19 0.23 0.22 0.20 0.19 0.20 0.19 0.20 0.23 0.24 0.26 0.31 0.36 0.43 0.49 0.43 0.38 0.35
0.16 0.08 0.08 0.08 0.08 0.08 0.06 0.05 0.04 0.04 0.04 0.06 0.08 0.10 0.12 0.14 0.14 0.15 0.19 0.17 0.14 0.13 0.14 0.18 0.19 0.20 0.23 0.22 0.20 0.19 0.18 0.21 0.26 0.27 0.29 0.33 0.32 0.31 0.33 0.34 0.46 0.44 0.36 0.37
0.11 0.06 0.08 0.07 0.06 0.05 0.05 0.04 0.04 0.04 0.04 0.04 0.07 0.11 0.11 0.12 0.13 0.15 0.18 0.20 0.16 0.15 0.17 0.21 0.23 0.28 0.28 0.21 0.17 0.19 0.22 0.24 0.28 0.32 0.32 0.33 0.31 0.31 0.34 0.33 0.38 0.37 0.34 0.36
0.04 0.04 0.05 0.05 0.05 0.04 0.03 0.03 0.03 0.04 0.05 0.05 0.06 0.10 0.13 0.13 0.12 0.14 0.17 0.19 0.21 0.20 0.22 0.24 0.27 0.30 0.27 0.20 0.17 0.18 0.22 0.24 0.27 0.31 0.30 0.27 0.25 0.25 0.29 0.36 0.43 0.41 0.39 0.36
0.03 0.04 0.04 0.03 0.03 0.03 0.03 0.03 0.03 0.04 0.05 0.06 0.07 0.09 0.12 0.13 0.12 0.13 0.16 0.20 0.22 0.21 0.22 0.24 0.27 0.29 0.28 0.22 0.20 0.20 0.23 0.25 0.26 0.28 0.28 0.27 0.26 0.24 0.25 0.30 0.38 0.41 0.44 0.42
0.03 0.04 0.05 0.03 0.03 0.03 0.02 0.03 0.04 0.04 0.05 0.06 0.06 0.07 0.09 0.12 0.12 0.13 0.17 0.20 0.23 0.23 0.22 0.25 0.28 0.33 0.31 0.24 0.22 0.22 0.26 0.25 0.23 0.25 0.28 0.30 0.30 0.29 0.28 0.30 0.32 0.34 0.40 0.48
0.04 0.05 0.06 0.05 0.04 0.03 0.03 0.03 0.04 0.04 0.05 0.06 0.06 0.06 0.07 0.10 0.12 0.15 0.17 0.20 0.22 0.24 0.24 0.27 0.31 0.35 0.32 0.26 0.25 0.24 0.27 0.30 0.26 0.26 0.30 0.33 0.33 0.35 0.35 0.36 0.38 0.38 0.39 0.44
0.08 0.08 0.08 0.07 0.06 0.04 0.04 0.03 0.03 0.04 0.04 0.05 0.06 0.06 0.06 0.08 0.10 0.13 0.16 0.19 0.20 0.21 0.22 0.24 0.28 0.33 0.33 0.31 0.28 0.27 0.29 0.32 0.34 0.30 0.31 0.33 0.36 0.39 0.40 0.42 0.44 0.43 0.37 0.41
0.10 0.10 0.08 0.07 0.06 0.05 0.04 0.03 0.02 0.03 0.04 0.05 0.05 0.06 0.06 0.08 0.10 0.13 0.16 0.17 0.18 0.21 0.24 0.24 0.28 0.32 0.34 0.36 0.32 0.30 0.31 0.32 0.32 0.31 0.33 0.37 0.41 0.42 0.44 0.46 0.45 0.46 0.44 0.47
0.07 0.08 0.06 0.06 0.06 0.05 0.05 0.05 0.04 0.04 0.04 0.04 0.05 0.06 0.06 0.08 0.10 0.13 0.16 0.16 0.18 0.21 0.25 0.27 0.33 0.33 0.35 0.39 0.38 0.33 0.33 0.34 0.36 0.34 0.35 0.45 0.48 0.44 0.45 0.48 0.49 0.49 0.50 0.51
0.06 0.06 0.05 0.05 0.05 0.05 0.06 0.06 0.05 0.04 0.04 0.04 0.06 0.06 0.06 0.08 0.10 0.12 0.14 0.15 0.18 0.21 0.25 0.29 0.31 0.32 0.34 0.40 0.43 0.37 0.39 0.41 0.41 0.39 0.39 0.45 0.49 0.50 0.50 0.51 0.52 0.53 0.52 0.52
0.06 0.06 0.06 0.05 0.06 0.06 0.07 0.08 0.06 0.05 0.05 0.05 0.07 0.08 0.08 0.10 0.12 0.13 0.14 0.15 0.16 0.21 0.24 0.29 0.29 0.29 0.30 0.40 0.47 0.42 0.42 0.42 0.44 0.43 0.44 0.46 0.51 0.54 0.55 0.54 0.55 0.54 0.53 0.53
0.06 0.07 0.07 0.05 0.06 0.08 0.08 0.08 0.08 0.07 0.06 0.06 0.07 0.09 0.11 0.12 0.12 0.14 0.15 0.15 0.17 0.23 0.25 0.25 0.25 0.29 0.35 0.42 0.44 0.42 0.41 0.41 0.43 0.46 0.48 0.49 0.54 0.59 0.57 0.55 0.59 0.57 0.54 0.53
0.07 0.07 0.08 0.08 0.09 0.10 0.09 0.08 0.09 0.10 0.09 0.09 0.09 0.11 0.13 0.15 0.15 0.16 0.17 0.18 0.21 0.26 0.26 0.25 0.28 0.35 0.43 0.41 0.40 0.42 0.42 0.43 0.44 0.48 0.51 0.53 0.55 0.58 0.58 0.58 0.59 0.58 0.58 0.56
0.08 0.08 0.09 0.10 0.11 0.13 0.11 0.10 0.10 0.12 0.13 0.13 0.12 0.13 0.14 0.16 0.16 0.16 0.18 0.24 0.27 0.29 0.28 0.31 0.35 0.39 0.45 0.41 0.41 0.44 0.47 0.49 0.50 0.54 0.58 0.59 0.60 0.61 0.59 0.57 0.58 0.56 0.54 0.53
0.11 0.10 0.10 0.11 0.13 0.15 0.15 0.14 0.13 0.14 0.14 0.15 0.15 0.14 0.16 0.18 0.21 0.20 0.22 0.26 0.29 0.31 0.32 0.36 0.41 0.43 0.44 0.45 0.47 0.50 0.55 0.58 0.61 0.69 0.70 0.66 0.63 0.62 0.58 0.53 0.54 0.55 0.54 0.51
0.15 0.15 0.15 0.15 0.17 0.18 0.17 0.17 0.16 0.15 0.14 0.16 0.17 0.18 0.20 0.22 0.24 0.25 0.27 0.29 0.31 0.35 0.35 0.36 0.40 0.45 0.47 0.52 0.56 0.59 0.64 0.68 0.70 0.69 0.65 0.62 0.61 0.60 0.56 0.52 0.51 0.52 0.52 0.48
0.20 0.19 0.19 0.20 0.21 0.20 0.20 0.20 0.22 0.21 0.20 0.21 0.23 0.23 0.24 0.26 0.29 0.31 0.32 0.34 0.36 0.37 0.38 0.40 0.43 0.49 0.55 0.59 0.63 0.67 0.69 0.70 0.71 0.69 0.65 0.63 0.62 0.58 0.54 0.52 0.51 0.50 0.49 0.44